GW4866 Weather Reports


time (UTC)temp
C
wind
direction
speed
KPH
gust
KPH
rain 1hr
cm
rain 24hr
cm
rain mn
cm
humidity
%
barometer
mb
20260906220504 30 310 3.2 12.9 0.00 0.00 0.00 31 1019.9
20260906220004 30 302 4.8 12.9 0.00 0.00 0.00 32 1019.8
20260906215004 31 32 3.2 14.5 0.00 0.00 0.00 32 1019.9
20260906214004 31 87 4.8 17.7 0.00 0.00 0.00 31 1020.1
20260906213503 31 76 4.8 17.7 0.00 0.00 0.00 31 1020.4
20260906213004 31 93 4.8 16.1 0.00 0.00 0.00 32 1020.2
20260906212503 31 52 3.2 12.9 0.00 0.00 0.00 32 1020.3
20260906212004 31 62 3.2 8.0 0.00 0.00 0.00 32 1020.2
20260906211004 30 330 3.2 14.5 0.00 0.00 0.00 32 1020.2
20260906210503 31 55 4.8 12.9 0.00 0.00 0.00 31 1020.4
20260906210004 30 321 4.8 12.9 0.00 0.00 0.00 33 1020.3
20260906205503 31 284 3.2 12.9 0.00 0.00 0.00 33 1020.3
20260906204503 31 73 4.8 16.1 0.00 0.00 0.00 35 1020.9
20260906204004 31 85 4.8 9.7 0.00 0.00 0.00 35 1021.0
20260906203003 31 73 4.8 12.9 0.00 0.00 0.00 34 1021.1
20260906202003 31 90 4.8 14.5 0.00 0.00 0.00 33 1020.9
20260906201504 31 90 3.2 11.3 0.00 0.00 0.00 34 1021.2
20260906201003 30 37 3.2 14.5 0.00 0.00 0.00 34 1021.2
20260906200504 30 309 4.8 14.5 0.00 0.00 0.00 35 1020.9
20260906200003 30 311 4.8 12.9 0.00 0.00 0.00 33 1021.0
20260906195504 31 323 3.2 9.7 0.00 0.00 0.00 33 1021.0
20260906195003 31 356 4.8 11.3 0.00 0.00 0.00 32 1020.9
20260906194504 31 85 4.8 11.3 0.00 0.00 0.00 33 1021.3
20260906194003 31 93 3.2 9.7 0.00 0.00 0.00 33 1021.6
20260906193503 31 81 3.2 14.5 0.00 0.00 0.00 32 1021.4
20260906193003 31 58 3.2 14.5 0.00 0.00 0.00 33 1021.5
20260906192003 30 19 3.2 9.7 0.00 0.00 0.00 32 1021.5
20260906191003 30 320 4.8 11.3 0.00 0.00 0.00 33 1021.6
20260906190504 30 319 4.8 11.3 0.00 0.00 0.00 33 1021.8
20260906190003 30 322 3.2 9.7 0.00 0.00 0.00 32 1021.9
20260906185504 30 331 3.2 8.0 0.00 0.00 0.00 34 1021.8
20260906185003 30 306 3.2 9.7 0.00 0.00 0.00 34 1022.0
20260906184504 30 314 3.2 9.7 0.00 0.00 0.00 33 1022.2
20260906184003 30 340 3.2 6.4 0.00 0.00 0.00 32 1022.4
20260906183004 29 318 3.2 8.0 0.00 0.00 0.00 34 1022.6
20260906182503 28 311 3.2 8.0 0.00 0.00 0.00 35 1022.6
20260906182004 29 358 1.6 8.0 0.00 0.00 0.00 33 1022.8
20260906181503 29 348 1.6 8.0 0.00 0.00 0.00 33 1023.0
20260906181004 29 310 1.6 8.0 0.00 0.00 0.00 33 1023.1
20260906180503 28 312 3.2 6.4 0.00 0.00 0.00 33 1023.0
20260906180004 28 318 1.6 6.4 0.00 0.00 0.00 34 1023.3
20260906175503 29 36 1.6 6.4 0.00 0.00 0.00 33 1023.3
20260906175004 29 94 1.6 4.8 0.00 0.00 0.00 35 1023.3
20260906174003 28 321 1.6 6.4 0.00 0.00 0.00 34 1023.4
20260906173504 28 310 1.6 6.4 0.00 0.00 0.00 35 1023.6
20260906173003 28 348 3.2 6.4 0.00 0.00 0.00 35 1023.7
20260906172503 28 76 3.2 8.0 0.00 0.00 0.00 34 1023.6
20260906171503 27 72 3.2 8.0 0.00 0.00 0.00 36 1024.0
20260906171004 28 10 1.6 6.4 0.00 0.00 0.00 35 1023.8
20260906170504 27 319 1.6 4.8 0.00 0.00 0.00 35 1023.8
20260906170003 27 303 3.2 8.0 0.00 0.00 0.00 34 1023.8
20260906165503 27 297 3.2 8.0 0.00 0.00 0.00 35 1023.9
20260906165003 27 321 1.6 6.4 0.00 0.00 0.00 35 1023.9
20260906164504 27 345 1.6 6.4 0.00 0.00 0.00 36 1023.9
20260906164003 27 45 1.6 6.4 0.00 0.00 0.00 35 1023.9
20260906163503 27 75 1.6 9.7 0.00 0.00 0.00 36 1023.5
20260906163003 26 78 1.6 9.7 0.00 0.00 0.00 38 1023.9
20260906162503 26 78 3.2 9.7 0.00 0.00 0.00 37 1023.5
20260906162004 26 72 3.2 11.3 0.00 0.00 0.00 38 1023.6
20260906161003 26 62 1.6 11.3 0.00 0.00 0.00 37 1023.6
20260906160504 26 65 1.6 4.8 0.00 0.00 0.00 37 1023.6
20260906160005 26 64 1.6 4.8 0.00 0.00 0.00 37 1023.6
20260906155504 26 70 1.6 4.8 0.00 0.00 0.00 39 1023.8
20260906155005 25 81 1.6 4.8 0.00 0.00 0.00 37 1023.5
20260906154505 25 69 1.6 4.8 0.00 0.00 0.00 37 1023.5
20260906153004 24 179 0.0 3.2 0.00 0.00 0.00 40 1023.5
20260906152504 24 192 0.0 4.8 0.00 0.00 0.00 40 1023.5
20260906152005 23 205 1.6 6.4 0.00 0.00 0.00 41 1023.5
20260906151504 23 181 1.6 8.0 0.00 0.00 0.00 42 1023.5
20260906150004 22 190 3.2 8.0 0.00 0.00 0.00 44 1023.6
20260906145505 22 184 3.2 8.0 0.00 0.00 0.00 45 1023.5
20260906145005 21 174 3.2 8.0 0.00 0.00 0.00 47 1023.5
20260906144504 21 168 3.2 6.4 0.00 0.00 0.00 47 1023.7
20260906144004 21 184 1.6 6.4 0.00 0.00 0.00 48 1023.6
20260906143504 20 215 1.6 6.4 0.00 0.00 0.00 49 1023.5
20260906143004 20 210 1.6 6.4 0.00 0.00 0.00 50 1023.5
20260906142005 20 211 1.6 6.4 0.00 0.00 0.00 51 1023.5
20260906141505 20 199 1.6 6.4 0.00 0.00 0.00 52 1023.6
20260906141004 19 206 3.2 6.4 0.00 0.00 0.00 52 1023.7
20260906140004 18 210 3.2 8.0 0.00 0.00 0.00 53 1023.5
20260906135504 18 207 1.6 8.0 0.00 0.00 0.00 54 1023.5
20260906135004 18 188 3.2 8.0 0.00 0.00 0.00 54 1023.0
20260906134505 18 190 3.2 8.0 0.00 0.00 0.00 54 1022.9
20260906134004 17 191 3.2 4.8 0.00 0.00 0.00 55 1023.0
20260906133505 17 200 1.6 6.4 0.00 0.00 0.00 55 1022.9
20260906133004 17 218 1.6 6.4 0.00 0.00 0.00 56 1022.9
20260906132504 17 223 1.6 8.0 0.00 0.00 0.00 56 1022.8
20260906132005 17 210 0.0 8.0 0.00 0.00 0.00 57 1022.8
20260906131005 16 209 0.0 1.6 0.00 0.00 0.00 57 1022.7
20260906125504 17 208 1.6 4.8 0.00 0.00 0.00 55 1022.7
20260906125005 17 221 1.6 6.4 0.00 0.00 0.00 55 1022.7
20260906124504 17 213 1.6 6.4 0.00 0.00 0.00 54 1022.7
20260906124005 17 191 3.2 9.7 0.00 0.00 0.00 53 1022.6
20260906123504 17 178 3.2 9.7 0.00 0.00 0.00 53 1022.6
20260906123005 17 169 3.2 8.0 0.00 0.00 0.00 53 1022.5
20260906122504 17 169 3.2 9.7 0.00 0.00 0.00 52 1022.5
20260906122004 17 182 3.2 9.7 0.00 0.00 0.00 52 1022.5
20260906121505 17 186 3.2 8.0 0.00 0.00 0.00 52 1022.5
20260906121004 17 192 3.2 8.0 0.00 0.00 0.00 52 1022.4
20260906120504 17 195 1.6 4.8 0.00 0.00 0.00 53 1022.5
20260906120005 17 206 1.6 3.2 0.00 0.00 0.00 52 1022.5
20260906115508 17 214 1.6 3.2 0.00 0.00 0.00 53 1022.4
20260906115004 17 212 1.6 4.8 0.00 0.00 0.00 54 1022.3
20260906114505 17 214 1.6 4.8 0.00 0.00 0.00 53 1022.3
20260906114005 17 220 1.6 4.8 0.00 0.00 0.00 53 1022.3
20260906113505 17 215 1.6 6.4 0.00 0.00 0.00 53 1022.3
20260906113004 17 213 1.6 6.4 0.00 0.00 0.00 53 1022.2
20260906112504 17 215 1.6 4.8 0.00 0.00 0.00 53 1022.1
20260906112004 17 218 1.6 4.8 0.00 0.00 0.00 54 1022.1
20260906111504 17 217 1.6 4.8 0.00 0.00 0.00 54 1022.0
20260906110505 17 219 0.0 1.6 0.00 0.00 0.00 56 1021.9
20260906110004 17 198 1.6 4.8 0.00 0.00 0.00 53 1021.9
20260906105505 17 185 1.6 4.8 0.00 0.00 0.00 53 1021.9
20260906105004 17 188 1.6 3.2 0.00 0.00 0.00 53 1021.9
20260906104505 17 209 1.6 6.4 0.00 0.00 0.00 53 1021.9
20260906104004 17 205 1.6 6.4 0.00 0.00 0.00 54 1021.9
20260906103505 17 199 1.6 3.2 0.00 0.00 0.00 54 1022.0
20260906103004 17 202 1.6 4.8 0.00 0.00 0.00 54 1021.9
20260906102505 17 187 1.6 4.8 0.00 0.00 0.00 55 1021.9
20260906102004 17 179 1.6 4.8 0.00 0.00 0.00 55 1022.0
20260906101504 17 194 0.0 4.8 0.00 0.00 0.00 56 1022.1
20260906101005 17 178 0.0 4.8 0.00 0.00 0.00 56 1022.2
20260906100504 17 193 1.6 4.8 0.00 0.00 0.00 56 1022.2
20260906100005 17 204 1.6 4.8 0.00 0.00 0.00 56 1022.3
20260906095504 18 187 1.6 6.4 0.00 0.00 0.00 56 1022.4
20260906095005 18 175 3.2 6.4 0.00 0.00 0.00 55 1022.4
20260906094504 17 171 3.2 6.4 0.00 0.00 0.00 56 1022.3
20260906093504 17 178 3.2 4.8 0.00 0.00 0.00 58 1022.3
20260906093005 17 198 1.6 4.8 0.00 0.00 0.00 59 1022.3
20260906092504 17 215 1.6 4.8 0.00 0.00 0.00 59 1022.4
20260906092005 17 214 1.6 4.8 0.00 0.00 0.00 58 1022.3
20260906091504 18 208 1.6 4.8 0.00 0.00 0.00 58 1022.3
20260906091005 18 187 0.0 3.2 0.00 0.00 0.00 58 1022.2
20260906090504 18 189 0.0 3.2 0.00 0.00 0.00 59 1022.2
20260906090004 18 171 0.0 3.2 0.00 0.00 0.00 59 1022.3
20260906085504 18 173 0.0 3.2 0.00 0.00 0.00 59 1022.2
20260906085004 18 173 0.0 3.2 0.00 0.00 0.00 60 1022.1
20260906084505 18 166 0.0 3.2 0.00 0.00 0.00 60 1022.1
20260906084004 18 189 0.0 3.2 0.00 0.00 0.00 60 1022.1
20260906082004 18 193 0.0 4.8 0.00 0.00 0.00 61 1022.1
20260906081505 18 202 0.0 4.8 0.00 0.00 0.00 62 1022.1
20260906081004 18 222 1.6 4.8 0.00 0.00 0.00 63 1022.2
20260906080505 18 215 1.6 6.4 0.00 0.00 0.00 65 1022.4
20260906080004 17 195 1.6 6.4 0.00 0.00 0.00 68 1022.4
20260906075505 17 186 1.6 4.8 0.00 0.00 0.00 69 1022.5
20260906075004 17 201 1.6 4.8 0.00 0.00 0.00 69 1022.6
20260906074504 17 222 1.6 4.8 0.00 0.00 0.00 69 1022.8
20260906074004 17 226 1.6 3.2 0.00 0.00 0.00 70 1022.6
20260906073504 17 222 1.6 3.2 0.00 0.00 0.00 70 1022.7
20260906072504 17 217 0.0 1.6 0.00 0.00 0.00 70 1022.7
20260906072005 17 218 0.0 1.6 0.00 0.00 0.00 70 1022.8
20260906071504 17 218 0.0 1.6 0.00 0.00 0.00 70 1022.7
20260906071005 17 218 0.0 1.6 0.00 0.00 0.00 70 1022.7
20260906070505 17 210 0.0 4.8 0.00 0.00 0.00 69 1022.7
20260906070004 17 206 0.0 4.8 0.00 0.00 0.00 69 1022.9
20260906065504 17 186 0.0 3.2 0.00 0.00 0.00 69 1023.0
20260906065004 17 0 0.0 0.0 0.00 0.00 0.00 69 1023.0
20260906064004 18 0 0.0 0.0 0.00 0.00 0.00 69 1023.0
20260906063505 18 320 0.0 1.6 0.00 0.00 0.00 68 1022.9
20260906063004 18 325 0.0 3.2 0.00 0.00 0.00 68 1022.7
20260906062504 18 327 0.0 3.2 0.00 0.00 0.00 68 1022.7
20260906062005 18 328 0.0 1.6 0.00 0.00 0.00 68 1022.7
20260906061504 18 328 0.0 1.6 0.00 0.00 0.00 68 1022.7
20260906061004 18 328 0.0 1.6 0.00 0.00 0.00 68 1022.7
20260906060505 18 328 0.0 1.6 0.00 0.00 0.00 68 1022.6
20260906055004 18 327 0.0 1.6 0.00 0.00 0.00 68 1022.5
20260906054504 18 342 0.0 3.2 0.00 0.00 0.00 68 1022.4
20260906054004 18 356 0.0 3.2 0.00 0.00 0.00 69 1022.3
20260906053504 18 38 0.0 3.2 0.00 0.00 0.00 69 1022.3
20260906053005 18 45 0.0 3.2 0.00 0.00 0.00 70 1022.3
20260906052504 18 45 0.0 1.6 0.00 0.00 0.00 70 1022.3
20260906052005 18 44 0.0 1.6 0.00 0.00 0.00 70 1022.3
20260906051504 18 45 0.0 1.6 0.00 0.00 0.00 70 1022.4
20260906051004 18 44 0.0 1.6 0.00 0.00 0.00 70 1022.4
20260906050504 18 44 0.0 1.6 0.00 0.00 0.00 70 1022.4
20260906045504 18 45 0.0 1.6 0.00 0.00 0.00 70 1022.3
20260906045005 18 45 0.0 1.6 0.00 0.00 0.00 71 1022.4
20260906044504 18 45 0.0 1.6 0.00 0.00 0.00 70 1022.5
20260906044005 18 45 0.0 1.6 0.00 0.00 0.00 70 1022.8
20260906043504 18 0 0.0 0.0 0.00 0.00 0.00 69 1022.5
20260906042004 19 45 0.0 1.6 0.00 0.00 0.00 68 1022.7
20260906041505 19 45 0.0 1.6 0.00 0.00 0.00 67 1022.5
20260906041004 19 0 0.0 0.0 0.00 0.00 0.00 67 1022.8
20260906040504 20 45 0.0 1.6 0.00 0.00 0.00 66 1022.8
20260906040004 20 44 0.0 4.8 0.00 0.00 0.00 65 1022.8
20260906035005 20 122 0.0 1.6 0.00 0.00 0.00 65 1022.9
20260906034504 20 141 0.0 1.6 0.00 0.00 0.00 64 1022.8
20260906034005 20 288 0.0 3.2 0.00 0.00 0.00 64 1022.8
20260906033504 20 314 0.0 3.2 0.00 0.00 0.00 63 1022.7
20260906032504 21 307 1.6 3.2 0.00 0.00 0.00 63 1022.6
20260906032005 21 286 0.0 3.2 0.00 0.00 0.00 63 1022.6
20260906031504 21 305 0.0 3.2 0.00 0.00 0.00 62 1022.3
20260906031004 21 319 0.0 3.2 0.00 0.00 0.00 62 1022.5
20260906030504 21 320 0.0 3.2 0.00 0.00 0.00 62 1022.4
20260906030004 21 311 1.6 8.0 0.00 0.00 0.00 62 1022.3
20260906025504 21 307 1.6 8.0 0.00 0.00 0.00 61 1022.2
20260906025004 21 314 1.6 8.0 0.00 0.00 0.00 61 1022.6
20260906024504 21 320 1.6 6.4 0.00 0.00 0.00 61 1022.6
20260906024004 22 317 1.6 6.4 0.00 0.00 0.00 60 1022.5
20260906023504 22 316 3.2 8.0 0.00 0.00 0.00 60 1022.6
20260906023005 22 319 3.2 12.9 0.00 0.00 0.00 59 1022.5
20260906022504 22 319 3.2 12.9 0.00 0.00 0.00 57 1022.6
20260906022004 22 314 1.6 6.4 0.00 0.00 0.00 57 1022.6
20260906021504 23 310 3.2 9.7 0.00 0.00 0.00 53 1022.1
20260906021004 23 275 3.2 11.3 0.00 0.00 0.00 49 1022.0
20260906020505 23 178 1.6 11.3 0.00 0.00 0.00 39 1021.3
20260906020004 23 170 1.6 3.2 0.00 0.00 0.00 36 1021.1
20260906015504 23 154 1.6 4.8 0.00 0.00 0.00 35 1021.0
20260906014504 23 150 1.6 4.8 0.00 0.00 0.00 35 1020.8
20260906013504 23 178 1.6 6.4 0.00 0.00 0.00 35 1020.9
20260906013005 23 178 1.6 3.2 0.00 0.00 0.00 35 1020.8
20260906012005 24 189 0.0 3.2 0.00 0.00 0.00 34 1020.8
20260906011504 24 197 0.0 3.2 0.00 0.00 0.00 33 1020.9
20260906011004 25 175 0.0 3.2 0.00 0.00 0.00 33 1020.8
20260906010504 25 142 0.0 4.8 0.00 0.00 0.00 33 1020.7
20260906010004 25 149 0.0 4.8 0.00 0.00 0.00 32 1020.8
20260906005004 25 195 1.6 4.8 0.00 0.00 0.00 32 1021.3
20260906004504 25 176 0.0 3.2 0.00 0.00 0.00 32 1021.4
20260906004004 25 183 0.0 3.2 0.00 0.00 0.00 32 1021.5
20260906003505 25 208 0.0 3.2 0.00 0.00 0.00 32 1021.5
20260906003004 26 220 0.0 3.2 0.00 0.00 0.00 32 1021.4
20260906002504 26 174 0.0 3.2 0.00 0.00 0.00 32 1021.4
20260906002004 26 113 0.0 3.2 0.00 0.00 0.00 32 1021.3
20260906001504 26 84 0.0 1.6 0.00 0.00 0.00 31 1021.3
20260906001005 27 157 0.0 1.6 0.00 0.00 0.00 30 1021.2
20260906000504 27 215 0.0 3.2 0.00 0.00 0.00 30 1021.3
20260906000004 27 220 0.0 3.2 0.00 0.00 0.00 29 1021.3
20260905235504 27 244 0.0 1.6 0.00 0.00 0.00 29 1021.2
20260905235005 27 246 0.0 1.6 0.00 0.00 0.00 29 1021.1
20260905234504 27 246 0.0 1.6 0.00 0.00 0.00 29 1021.1
20260905234004 27 218 0.0 3.2 0.00 0.00 0.00 29 1021.1
20260905233504 27 237 1.6 3.2 0.00 0.00 0.00 29 1021.2
20260905233004 27 256 1.6 3.2 0.00 0.00 0.00 28 1021.2
20260905232004 27 187 0.0 3.2 0.00 0.00 0.00 28 1021.0
20260905231505 27 167 1.6 3.2 0.00 0.00 0.00 28 1021.0
20260905231004 27 159 0.0 3.2 0.00 0.00 0.00 28 1021.1
20260905225504 28 154 0.0 1.6 0.00 0.00 0.00 26 1021.0
20260905225005 28 188 0.0 4.8 0.00 0.00 0.00 28 1021.2
20260905224504 28 215 0.0 4.8 0.00 0.00 0.00 27 1021.1
20260905224005 28 251 0.0 3.2 0.00 0.00 0.00 30 1021.2
20260905223504 27 240 0.0 3.2 0.00 0.00 0.00 30 1021.2
20260905223004 27 93 0.0 3.2 0.00 0.00 0.00 30 1021.3
20260905222505 27 90 1.6 4.8 0.00 0.00 0.00 31 1021.5
20260905222004 27 119 1.6 4.8 0.00 0.00 0.00 32 1021.7
20260905221504 27 198 0.0 3.2 0.00 0.00 0.00 30 1021.4
20260905221004 27 236 0.0 3.2 0.00 0.00 0.00 28 1021.4